Find Starlink 3116

NORAD ID: 49146 Int'l Des: 2021-082 Owner: SPXS Country: US Constellation: starlink operational
LEOCIRCULAR

当前视图

正在加载3D地球...

About Starlink 3116

Starlink 3116 (NORAD 49146) is a starlink constellation satellite (v1.5) launched Sep 14, 2021 by SPXS of US. It operates in LEO, CIRCULAR orbit with a mass of 297.00 kg.

关于 Starlink 3116

正在加载描述...

即将过境

Passes for default location (London). Set your location on the main map for personalized predictions.

高度历史

Loading altitude history...

两行轨道根数

1 49146U 21082S 26166.99603968 -.00000496 00000-0 -34594-4 0 9998
2 49146 69.9995 27.6981 0002607 268.4195 91.6665 14.97519094262323
Epoch: Jun 15, 2026 • Age: 8 hours

当前状态

高度 578.2 km
速度 7.57 km/s
星下点 -8.16°S, 1.05°E
发射日期 Sep 14, 2021
运行时间 4.7 years
类型 internet

技术详情

分类 Payload
质量 297.00 kg
干质量 275.00 kg
总质量 297.00 kg
长度 0.20 m
直径 2.80 m
跨度 9.00 m
形状 Box + pan
制造商 SPXS
平台类型 Starlink
阶段状态 In Orbit
所有者/国家 SPXS/US

Most Searched